Simultaneous Nadir Overpasses (SNOs) Predictions

Prediction of SNOs between NPP and TERRA Satellite Orbit:

Table of predicted SNOs for the next 14.0 days since TLE Epoch: 10/29/2016
Index Date (NPP) Time (NPP) Lat,Lon (NPP) SZA (NPP ) Date (TERRA) Time (TERRA) Lat,Lon (TERRA) SZA (TERRA ) Distance(km) Time Diff (sec)
1 10/30/2016 18:23:00 -68.45, 82.91 97.54 10/30/2016 18:24:01 -68.43, 82.88 97.56 2.53 61
2 10/30/2016 19:13:44 68.32,-109.61 82.34 10/30/2016 19:13:28 68.32,-109.62 82.33 0.65 16
3 10/30/2016 20:04:17 -67.76, 58.41 98.20 10/30/2016 20:03:06 -67.77, 57.37 98.22 43.78 71
4 11/02/2016 10:39:55 -68.42,-161.28 96.72 11/02/2016 10:40:30 -68.42,-161.26 96.72 1.05 35
5 11/02/2016 11:30:39 68.29, 6.19 83.17 11/02/2016 11:29:57 68.30, 6.24 83.17 2.27 42
6 11/05/2016 02:06:14 68.80, 146.66 84.47 11/05/2016 02:07:25 68.71, 147.35 84.40 29.70 71
7 11/05/2016 02:56:49 -68.34, -45.41 95.98 11/05/2016 02:57:00 -68.34, -45.47 95.98 2.48 11
8 11/05/2016 03:47:33 68.22, 122.05 83.92 11/05/2016 03:46:27 68.22, 122.02 83.91 1.10 66
9 11/07/2016 18:23:03 68.46, -97.12 84.93 11/07/2016 18:23:58 68.46, -97.08 84.93 1.69 55
10 11/07/2016 19:13:44 -68.31, 70.38 95.21 11/07/2016 19:13:29 -68.31, 70.37 95.22 1.13 15
11 11/07/2016 20:04:16 67.55,-121.36 84.06 11/07/2016 20:03:07 67.56,-122.85 84.04 63.42 69
12 11/10/2016 10:39:56 68.39, 18.74 85.62 11/10/2016 10:40:26 68.41, 18.74 85.64 2.51 30
13 11/10/2016 11:30:38 -68.29,-173.82
